Regional Weather Roundup
Issued by NWS

Home | Current Version | Previous Version | Graphics & Text | Print | Product List | Glossary On
Versions: 1 2 3 4 5 6 7 8 9 10 11 12 13 14 15 16 17 18 19 20 21 22 23 24 25 26 27 28 29 30 31 32 33 34 35 36 37 38 39 40 41 42 43 44 45 46 47 48 49 50
000
ASUS43 KLSX 012207
RWRMO

WEATHER SUMMARY FOR MISSOURI
NATIONAL WEATHER SERVICE SPRINGFIELD MO
500 PM CDT MON JUN 01 2015

NOTE: "FAIR" INDICATES FEW OR NO CLOUDS BELOW 12,000 FEET WITH NO
       SIGNIFICANT WEATHER AND/OR OBSTRUCTIONS TO VISIBILITY.
       CURRENT SKY AND/OR WEATHER CONDITIONS ARE NOT AVAILABLE FOR
       CHILLICOTHE AND FARMINGTON.

MOZ001>031-035>038-043-044-053-054-012300-
...NORTHERN AND WESTERN MISSOURI...

CITY           SKY/WX    TMP DP  RH WIND       PRES   REMARKS
KANSAS CTY INT PTSUNNY   65  55  70 SE8       30.13F
KANSAS C DTWN  CLOUDY    66  54  65 E8        30.13F
LEE`S SUMMIT   CLOUDY    63  54  72 E7        30.14F
ST JOSEPH      MOSUNNY   68  54  60 S10       30.12F
CHILLICOTHE      N/A     65  55  70 E8        30.16S
KIRKSVILLE     CLOUDY    63  55  75 E6        30.16F

$$
MOZ066>068-077>081-088>096-101>105-012300-
...SOUTHWEST MISSOURI...

CITY           SKY/WX    TMP DP  RH WIND       PRES   REMARKS
SPRINGFIELD    MOSUNNY   69  56  62 NE10      30.10F
JOPLIN         MOSUNNY   73  58  59 VRB6      30.10F

$$
MOZ032>034-039>042-045>050-055>058-069>072-012300-
...CENTRAL MISSOURI...

CITY           SKY/WX    TMP DP  RH WIND       PRES   REMARKS
COLUMBIA       CLOUDY    63  54  72 CALM      30.14F
JEFFERSON CITY CLOUDY    64  54  69 E3        30.14F
ROLLA          CLOUDY    60  55  83 N3        30.13S
SEDALIA        CLOUDY    63  54  72 E5        30.16S
WHITEMAN AFB   CLOUDY    62  55  76 E3        30.14S
WARRENSBURG    CLOUDY    61  54  77 NE3       30.15S
OSAGE BEACH    CLOUDY    61  54  77 NE3       30.14F

$$
MOZ051-052-059>065-012300-
...EAST CENTRAL MISSOURI...

CITY           SKY/WX    TMP DP  RH WIND       PRES   REMARKS
ST LOUIS INTL  CLOUDY    64  54  68 NE9       30.13F
SPIRIT OF STL  CLOUDY    63  56  78 N5        30.13S
ST CHARLES     CLOUDY    64  56  75 N6        30.13S

$$
MOZ072>076-082>087-097>100-106>115-012300-
...SOUTH CENTRAL AND SOUTHEAST MISSOURI...

CITY           SKY/WX    TMP DP  RH WIND       PRES   REMARKS
CAPE GIRARDEAU CLOUDY    64  59  83 N10       30.09F
FARMINGTON     CLOUDY    61  55  82 N9        30.16S
POPLAR BLUFF   CLOUDY    64  59  83 N7        30.10S
WEST PLAINS    CLOUDY    66  57  72 NE6       30.12F

$$



USA.gov is the U.S. government's official web portal to all federal, state and local government web resources and services.